星链-11682 (STARLINK-11682)

导读

STARLINK-11682是美国SpaceX公司星链(Starlink)星座的一员,于2025年6月3日发射入轨,运行在近地轨道。作为星链互联网星座的组成部分,它承担着全球卫星互联网接入服务的任务,可为偏远地区、移动场景提供高速宽带网络,支撑天地一体化网络建设,助力消除数字鸿沟,目前已进入在轨工作阶段,服务全球用户的网络 connectivity 需求。

基本信息
目录编号:
64234
目录名称:
STARLINK-11682
国际标识:
2025-119B
轨道中心:
EARTH
卫星名称:
星链-11682
卫星全名:
星链-11682 (STARLINK-11682)
卫星状态:
在轨 (已飞行466 天)
发射日期:
2025-06-03 UTC
国别 :
美国 (US)
星等 :
--
该卫星已列入 空间交会检测服务 Space Conjunction Data Service (SCDS) ,当前飞行风险评估等级: 无高风险
轨道信息
数据来源 国际轨道数据
星历时间: 2026-09-12T02:19:25+0800
1天前
查看轨道信息
半长轴: 6734.581km
偏心率: 0.0002025
轨道倾角: 43.001°
近地点辐角 271.540°
升交点赤经 168.031°
平近点角 88.524°
近地点: 355.08km
远地点: 357.808km
周期: 91.670分钟
每日圈数: 15.708582
详细信息
固有亮度:
5
最大亮度:
2.5
卫星平台:
Starlink V1.0
覆盖范围:
全球
运营商:
太空探索技术公司
运营商所在国:
美国
制造商(研发单位):
太空探索技术公司
制造商所在国:
美国
使用方式:
暂无
卫星简介
Starlink 计划是 SpaceX 推出的全球卫星互联网项目,通过发射低轨道卫星,为全球尤其是偏远地区提供高速、低延迟的互联网服务。自 2019 年起,Starlink 已部署数千颗卫星,旨在缩小全球数字鸿沟,推动互联网普及。该项目还为军事、航空等行业提供通信支持,带来广泛经济效益。
2D轨道图
3D轨道图
轨道高度分析图
轨道倾角分析图
轨道综合分析图
查看轨道综合分析图
交会数据列表
事件ID 空间交会对象 最接近时刻(TCA) 交会距离 交会风险概率(CRP) 交会风险指数(CRI) 操作
CDM_260914-195106-356006-423421
2026-09-14T
19:51:17+0000
1.711 km
极远距离
2.17864E-6 低风险 0.42
CDM_260913-220204-645806-423422
2026-09-13T
22:02:40+0000
2.836 km
极远距离
1.404406E-6 低风险 0.38
CDM_260914-203706-356006-423421
2026-09-14T
20:37:03+0000
2.959 km
极远距离
7.38128E-7 极低风险 0.32
与全量物体交会距离演化趋势
与全量物体交会风险概率演化趋势